GW3787 Weather Reports


Display with metric or nautical units.
time (UTC)temp
F
wind
direction
speed
MPH
gust
MPH
rain 1hr
in
rain 24hr
in
rain mn
in
humidity
%
barometer
mb
20260509180025 60 294 0.0 8.0 0.00 0.00 0.00 38 1012.4
20260509174522 60 292 3.0 9.0 0.00 0.00 0.00 39 1012.2
20260509173026 60 10 0.0 4.0 0.00 0.00 0.00 39 1012.2
20260509171514 60 351 0.0 3.0 0.00 0.00 0.00 39 1012.1
20260509170014 60 351 0.0 3.0 0.00 0.00 0.00 39 1012.1
20260509164511 60 37 0.0 5.0 0.00 0.00 0.00 38 1012.1
20260509163010 60 31 1.0 6.0 0.00 0.00 0.00 40 1012.0
20260509161506 59 31 2.0 8.0 0.00 0.00 0.00 42 1011.9
20260509160004 59 31 0.0 4.0 0.00 0.00 0.00 41 1011.7
20260509154502 59 31 1.0 6.0 0.00 0.00 0.00 42 1011.5
20260509153105 59 47 2.0 7.0 0.00 0.00 0.00 43 1011.4
20260509151556 58 356 0.0 3.0 0.00 0.00 0.00 46 1011.3
20260509150053 57 356 1.0 5.0 0.00 0.00 0.00 48 1011.2
20260509144551 56 62 0.0 3.0 0.00 0.00 0.00 52 1011.1
20260509143045 54 62 0.0 1.0 0.00 0.00 0.00 54 1010.9
20260509141544 53 62 0.0 0.0 0.00 0.00 0.00 55 1010.9
20260509140053 53 62 1.0 4.0 0.00 0.00 0.00 54 1010.7
20260509134537 52 25 0.0 1.0 0.00 0.00 0.00 56 1010.7
20260509133032 51 25 0.0 0.0 0.00 0.00 0.00 58 1010.4
20260509131528 50 39 1.0 5.0 0.00 0.00 0.00 57 1010.2
20260509130023 49 64 0.0 2.0 0.00 0.00 0.00 60 1010.3
20260509124522 48 64 1.0 3.0 0.00 0.00 0.00 62 1010.0
20260509123019 48 64 0.0 1.0 0.00 0.00 0.00 61 1010.0
20260509121516 48 64 0.0 2.0 0.00 0.00 0.00 61 1009.9
20260509120014 48 64 0.0 0.0 0.00 0.00 0.00 61 1009.6
20260509114511 48 64 0.0 0.0 0.00 0.00 0.00 61 1009.4
20260509113010 48 63 0.0 0.0 0.00 0.00 0.00 61 1009.2
20260509111508 49 63 0.0 0.0 0.00 0.00 0.00 60 1009.1
20260509110007 49 63 0.0 3.0 0.00 0.00 0.00 60 1009.0
20260509104506 49 63 0.0 0.0 0.00 0.00 0.00 60 1008.9
20260509103005 49 63 0.0 2.0 0.00 0.00 0.00 61 1008.8
20260509101505 49 63 0.0 2.0 0.00 0.00 0.00 62 1008.6
20260509100002 48 63 0.0 2.0 0.00 0.00 0.00 63 1008.4
20260509094604 48 63 0.0 1.0 0.00 0.00 0.00 63 1008.2
20260509093100 48 63 0.0 0.0 0.00 0.00 0.00 62 1008.2
20260509091557 49 63 0.0 1.0 0.00 0.00 0.00 61 1008.2
20260509090101 49 63 0.0 2.0 0.00 0.00 0.00 61 1008.1
20260509084601 49 63 0.0 0.0 0.00 0.00 0.00 60 1008.1
20260509083106 49 63 0.0 0.0 0.00 0.00 0.00 59 1008.0
20260509081552 49 63 0.0 1.0 0.00 0.00 0.00 58 1008.0
20260509080051 50 63 0.0 2.0 0.00 0.00 0.00 56 1008.0
20260509074605 52 63 0.0 0.0 0.00 0.00 0.00 52 1007.8
20260509073059 52 63 0.0 1.0 0.00 0.00 0.00 50 1007.7
20260509071545 53 63 0.0 1.0 0.00 0.00 0.00 48 1007.7
20260509070041 53 63 0.0 1.0 0.00 0.00 0.00 49 1007.5
20260509064537 53 63 0.0 3.0 0.00 0.00 0.00 49 1007.5
20260509063050 54 63 0.0 0.0 0.00 0.00 0.00 47 1007.3
20260509061533 54 63 0.0 3.0 0.00 0.00 0.00 47 1007.3
20260509060030 54 63 0.0 0.0 0.00 0.00 0.00 46 1007.1
20260509054531 55 63 0.0 0.0 0.00 0.00 0.00 46 1007.0
20260509053046 55 63 0.0 2.0 0.00 0.00 0.00 44 1006.8
20260509051527 55 63 0.0 3.0 0.00 0.00 0.00 44 1006.6
20260509050028 56 63 0.0 0.0 0.00 0.00 0.00 43 1006.5
20260509044526 56 63 0.0 7.0 0.00 0.00 0.00 42 1006.3
20260509043038 57 46 0.0 3.0 0.00 0.00 0.00 40 1006.1
20260509041526 58 31 1.0 6.0 0.00 0.00 0.00 36 1005.8
20260509040027 58 28 2.0 9.0 0.00 0.00 0.00 35 1005.6
20260509034524 55 301 0.0 1.0 0.00 0.00 0.00 40 1005.2
20260509033025 56 301 0.0 3.0 0.00 0.00 0.00 39 1005.0
20260509031525 57 301 0.0 0.0 0.00 0.00 0.00 37 1004.7
20260509030024 59 301 0.0 0.0 0.00 0.00 0.00 33 1004.4
20260509024524 61 29 0.0 4.0 0.00 0.00 0.00 31 1004.0
20260509023025 62 29 0.0 0.0 0.00 0.00 0.00 29 1003.9
20260509021522 63 27 1.0 4.0 0.00 0.00 0.00 28 1003.7
20260509020021 65 24 1.0 9.0 0.00 0.00 0.00 27 1003.6
20260509014621 66 27 4.0 10.0 0.00 0.00 0.00 25 1003.6
20260509013020 67 33 8.0 12.0 0.00 0.00 0.00 25 1003.6
20260509011520 68 23 9.0 14.0 0.00 0.00 0.00 24 1003.5
20260509010029 68 345 2.0 9.0 0.00 0.00 0.00 23 1003.4
20260509004523 68 17 2.0 12.0 0.00 0.00 0.00 23 1003.3
20260509003019 69 31 8.0 17.0 0.00 0.00 0.00 23 1003.2
20260509001517 69 360 5.0 16.0 0.00 0.00 0.00 24 1003.2
20260509000017 70 360 4.0 22.0 0.00 0.00 0.00 25 1003.0
20260508234517 71 360 6.0 18.0 0.00 0.00 0.00 24 1003.1
20260508233017 73 10 5.0 16.0 0.00 0.00 0.00 23 1002.9
20260508231515 72 322 6.0 17.0 0.00 0.00 0.00 23 1003.0
20260508230015 73 326 4.0 18.0 0.00 0.00 0.00 21 1002.9
20260508224520 73 337 10.0 22.0 0.00 0.00 0.00 22 1002.9
20260508223014 73 322 8.0 18.0 0.00 0.00 0.00 21 1003.2
20260508221511 73 328 5.0 20.0 0.00 0.00 0.00 21 1003.3
20260508220010 73 326 6.0 20.0 0.00 0.00 0.00 24 1003.5
20260508214522 73 311 7.0 16.0 0.00 0.00 0.00 21 1003.6
20260508213008 74 322 10.0 21.0 0.00 0.00 0.00 21 1003.7
20260508211512 72 307 15.0 26.0 0.00 0.00 0.00 20 1003.6
20260508210012 73 336 5.0 21.0 0.00 0.00 0.00 23 1003.7
20260508204505 73 308 16.0 24.0 0.00 0.00 0.00 19 1003.8
20260508203004 72 298 12.0 23.0 0.00 0.00 0.00 23 1003.9
20260508201503 72 327 9.0 16.0 0.00 0.00 0.00 24 1003.8
20260508200004 72 309 11.0 21.0 0.00 0.00 0.00 25 1003.8
20260508194608 72 304 7.0 19.0 0.00 0.00 0.00 25 1004.0
20260508193120 72 327 8.0 39.0 0.00 0.00 0.00 24 1004.1
20260508191607 73 309 8.0 22.0 0.00 0.00 0.00 24 1004.3
20260508190112 72 324 11.0 18.0 0.00 0.00 0.00 25 1004.4
20260508184555 72 281 9.0 22.0 0.00 0.00 0.00 25 1004.7
20260508183051 70 262 12.0 20.0 0.00 0.00 0.00 27 1004.9
20260508181553 69 289 8.0 19.0 0.00 0.00 0.00 29 1005.1